カタログに戻る

SCOUT G-1 DEB

運用中PO
NORAD 43331·DEBRIS·🇺🇸 United States

打ち上げ Apr 26, 1988 から Vandenberg Space Force Base

Loading…

次のパス (今後24時間)

TLE

経年Source: Space-Track

元期: Sep 9, 2026, 02:41 UTC

1 43331U 88033M   26252.11218956  .00000341  00000-0  61076-3 0  9997
2 43331  90.3256  21.2821 0168474 288.7760  69.5169 13.35212085247880

AllMySatでSCOUT G-1 DEBをリアルタイム追跡

Download on the App Store